Change the Weather History Date:

Tuesday, February 26, 2013

  Actual Average Record
Temperature  
Mean Temperature 22 °F -  
Max Temperature 30 °F 36 °F 55 °F (1958)
Min Temperature 15 °F 14 °F -9 °F (1950)
Degree Days  
Heating Degree Days 42    
Moisture  
Dew Point 21 °F    
Average Humidity 93    
Maximum Humidity 100    
Minimum Humidity 74    
Precipitation  
Precipitation 0.00 in - - ()
Sea Level Pressure  
Sea Level Pressure 29.97 in    
Wind  
Wind Speed 3 mph (North)    
Max Wind Speed 12 mph    
Max Gust Speed -    
Visibility 4 miles    
Events Fog , Snow    
Averages and records for this station are not official NWS values.
T = Trace of Precipitation, MM = Missing Value Source: NWS Daily Summary

Daily Weather History Graph

Daily Weather History Graph

Search for Another Location

Airport or City:

Trip Planner

Search our weather history database for the weather conditions in past years. The results will help you decide how hot, cold, wet, or windy it might be!

Date:

Astronomy

Feb. 26, 2013 Rise Set
Actual Time 7:00 AM CST 6:01 PM CST
Civil Twilight 6:31 AM CST 6:31 PM CST
Nautical Twilight 5:57 AM CST 7:05 PM CST
Astronomical Twilight 5:23 AM CST 7:39 PM CST
Moon 7:25 PM CST (2/26) 6:59 AM CST (2/26)
Length of Visible Light 12h 00m
Length of Day
11h 01m
Full, 99% of the Moon is Illuminated
Feb 26
Full
Mar 4
Last Quarter
Mar 11
New
Mar 19
First Quarter
Mar 27
Full

Hourly Weather History & Observations

Time (CST) Temp. Windchill Dew Point Humidity Pressure Visibility Wind Dir Wind Speed Gust Speed Precip Events Conditions
12:12 AM 17.6 °F - 17.6 °F 100% 30.04 in 0.2 mi Calm Calm - N/A Fog Light Freezing Fog
12:33 AM 17.6 °F - 17.6 °F 100% 30.03 in 0.2 mi Calm Calm - N/A Fog Light Freezing Fog
12:53 AM 17.6 °F - 15.8 °F 93% 30.03 in 0.2 mi Calm Calm - N/A Snow Light Snow
1:12 AM 15.8 °F - 15.8 °F 100% 30.04 in 0.2 mi Calm Calm - N/A Snow Light Snow
1:33 AM 15.8 °F - 15.8 °F 100% 30.05 in 0.2 mi Calm Calm - N/A Fog Light Freezing Fog
1:52 AM 15.8 °F - 15.8 °F 100% 30.04 in 0.2 mi Calm Calm - N/A Fog Light Freezing Fog
2:13 AM 15.8 °F - 15.8 °F 100% 30.03 in 0.2 mi Calm Calm - N/A Fog Light Freezing Fog
2:33 AM 15.8 °F - 15.8 °F 100% 30.03 in 0.2 mi Calm Calm - N/A Fog Light Freezing Fog
2:52 AM 15.8 °F 10.2 °F 15.8 °F 100% 30.03 in 0.2 mi North 3.5 mph - N/A Fog Light Freezing Fog
3:13 AM 15.8 °F - 15.8 °F 100% 30.02 in 0.2 mi Calm Calm - N/A Fog Light Freezing Fog
3:33 AM 15.8 °F - 14.0 °F 93% 30.03 in 0.2 mi Calm Calm - N/A Fog Light Freezing Fog
3:52 AM 15.8 °F - 14.0 °F 93% 30.03 in 0.5 mi Calm Calm - N/A Fog Light Freezing Fog
4:13 AM 15.8 °F 10.2 °F 14.0 °F 93% 30.02 in 0.5 mi North 3.5 mph - N/A Fog Light Freezing Fog
4:33 AM 15.8 °F 10.2 °F 14.0 °F 93% 30.01 in 0.5 mi North 3.5 mph - N/A Fog Light Freezing Fog
4:52 AM 15.8 °F 10.2 °F 14.0 °F 93% 30.00 in 0.5 mi North 3.5 mph - N/A Fog Light Freezing Fog
5:13 AM 15.8 °F - 14.0 °F 93% 29.99 in 0.5 mi Calm Calm - N/A Fog Light Freezing Fog
5:33 AM 15.8 °F - 14.0 °F 93% 30.00 in 0.5 mi Calm Calm - N/A Fog Light Freezing Fog
5:52 AM 15.8 °F 10.2 °F 14.0 °F 93% 29.99 in 0.2 mi North 3.5 mph - N/A Fog Light Freezing Fog
6:13 AM 15.8 °F - 15.8 °F 100% 29.98 in 0.2 mi Calm Calm - N/A Fog Light Freezing Fog
6:33 AM 15.8 °F - 15.8 °F 100% 29.98 in 0.2 mi Calm Calm - N/A Fog Light Freezing Fog
6:52 AM 15.8 °F - 15.8 °F 100% 30.00 in 0.2 mi Calm Calm - N/A Fog Light Freezing Fog
7:13 AM 15.8 °F - 15.8 °F 100% 29.99 in 0.2 mi Calm Calm - N/A Snow Light Snow
7:33 AM 15.8 °F - 15.8 °F 100% 30.00 in 0.2 mi Calm Calm - N/A Snow Light Snow
7:52 AM 15.8 °F - 15.8 °F 100% 29.99 in 0.2 mi Calm Calm - N/A Snow Light Snow
8:13 AM 15.8 °F - 15.8 °F 100% 29.99 in 0.2 mi Calm Calm - N/A Fog Light Freezing Fog
8:33 AM 17.6 °F - 15.8 °F 93% 29.99 in 0.2 mi Calm Calm - N/A Fog Light Freezing Fog
8:52 AM 17.6 °F - 17.6 °F 100% 29.99 in 0.2 mi Calm Calm - N/A Fog Light Freezing Fog
9:13 AM 17.6 °F - 17.6 °F 100% 30.00 in 0.5 mi Calm Calm - N/A Fog Light Freezing Fog
9:33 AM 17.6 °F - 17.6 °F 100% 30.00 in 0.2 mi Calm Calm - N/A Fog Light Freezing Fog
9:52 AM 19.4 °F - 17.6 °F 93% 30.01 in 0.2 mi Calm Calm - N/A Fog Light Freezing Fog
10:13 AM 19.4 °F - 19.4 °F 100% 30.01 in 0.8 mi Calm Calm - N/A   Overcast
10:32 AM 21.2 °F - 19.4 °F 93% 30.01 in 1.8 mi Calm Calm - N/A   Overcast
10:53 AM 21.2 °F - 21.2 °F 100% 30.01 in 2.5 mi Calm Calm - N/A   Overcast
11:12 AM 23.0 °F - 21.2 °F 93% 30.00 in 2.5 mi Calm Calm - N/A   Overcast
11:33 AM 24.8 °F 20.5 °F 23.0 °F 93% 30.00 in 3.0 mi NNE 3.5 mph - N/A   Overcast
11:53 AM 24.8 °F - 24.8 °F 100% 30.00 in 4.0 mi Calm Calm - N/A   Overcast
12:12 PM 26.6 °F 21.2 °F 24.8 °F 93% 29.98 in 4.0 mi NNE 4.6 mph - N/A   Overcast
12:33 PM 26.6 °F 19.1 °F 26.6 °F 100% 29.97 in 5.0 mi NNE 6.9 mph - N/A   Overcast
12:53 PM 26.6 °F 17.5 °F 26.6 °F 100% 29.96 in 5.0 mi NNE 9.2 mph - N/A   Overcast
1:13 PM 28.4 °F 20.4 °F 28.4 °F 100% 29.95 in 5.0 mi North 8.1 mph - N/A   Overcast
1:33 PM 28.4 °F 19.7 °F 28.4 °F 100% 29.95 in 5.0 mi North 9.2 mph - N/A   Overcast
1:52 PM 28.4 °F 19.7 °F 28.4 °F 100% 29.95 in 7.0 mi NNE 9.2 mph - N/A   Overcast
2:13 PM 28.4 °F 19.1 °F 26.6 °F 93% 29.94 in 7.0 mi NNE 10.4 mph - N/A   Overcast
2:33 PM 30.2 °F 21.9 °F 26.6 °F 86% 29.93 in 7.0 mi NNE 9.2 mph - N/A   Overcast
2:52 PM 30.2 °F 21.9 °F 26.6 °F 86% 29.93 in 7.0 mi NNE 9.2 mph - N/A   Overcast
3:13 PM 30.2 °F 21.3 °F 26.6 °F 86% 29.93 in 7.0 mi NNE 10.4 mph - N/A   Overcast
3:33 PM 30.2 °F 21.9 °F 26.6 °F 86% 29.92 in 7.0 mi North 9.2 mph - N/A   Overcast
3:52 PM 30.2 °F 20.8 °F 26.6 °F 86% 29.92 in 7.0 mi North 11.5 mph - N/A   Overcast
4:13 PM 30.2 °F 21.9 °F 26.6 °F 86% 29.92 in 7.0 mi North 9.2 mph - N/A   Mostly Cloudy
4:33 PM 30.2 °F 22.6 °F 26.6 °F 86% 29.91 in 7.0 mi North 8.1 mph - N/A   Scattered Clouds
4:52 PM 30.2 °F 23.4 °F 26.6 °F 86% 29.92 in 7.0 mi North 6.9 mph - N/A   Clear
5:13 PM 30.2 °F 24.3 °F 26.6 °F 86% 29.92 in 10.0 mi North 5.8 mph - N/A   Clear
5:33 PM 30.2 °F 24.3 °F 24.8 °F 80% 29.92 in 7.0 mi North 5.8 mph - N/A   Clear
5:52 PM 28.4 °F 23.3 °F 24.8 °F 86% 29.93 in 7.0 mi North 4.6 mph - N/A   Clear
6:13 PM 26.6 °F 19.1 °F 24.8 °F 93% 29.93 in 7.0 mi NNW 6.9 mph - N/A   Clear
6:33 PM 28.4 °F 20.4 °F 24.8 °F 86% 29.93 in 10.0 mi NNW 8.1 mph - N/A   Clear
6:52 PM 28.4 °F 19.1 °F 24.8 °F 86% 29.92 in 10.0 mi NNW 10.4 mph - N/A   Clear
7:13 PM 26.6 °F 17.5 °F 24.8 °F 93% 29.93 in 7.0 mi NW 9.2 mph - N/A   Clear
7:33 PM 26.6 °F 17.5 °F 24.8 °F 93% 29.93 in 7.0 mi NW 9.2 mph - N/A   Clear
7:52 PM 26.6 °F 18.2 °F 23.0 °F 86% 29.93 in 7.0 mi NNW 8.1 mph - N/A   Clear
8:13 PM 24.8 °F 15.3 °F 23.0 °F 93% 29.93 in 7.0 mi NNW 9.2 mph - N/A   Clear
8:33 PM 24.8 °F 14.6 °F 21.2 °F 86% 29.93 in 7.0 mi NNW 10.4 mph - N/A   Clear
8:52 PM 24.8 °F 14.6 °F 21.2 °F 86% 29.93 in 7.0 mi NNW 10.4 mph - N/A   Clear
9:13 PM 24.8 °F 15.3 °F 21.2 °F 86% 29.93 in 7.0 mi NNW 9.2 mph - N/A   Clear
9:33 PM 24.8 °F 17.9 °F 21.2 °F 86% 29.93 in 7.0 mi North 5.8 mph - N/A   Clear
9:52 PM 24.8 °F 16.1 °F 21.2 °F 86% 29.93 in 7.0 mi NNW 8.1 mph - N/A   Clear
10:13 PM 24.8 °F 16.1 °F 21.2 °F 86% 29.92 in 7.0 mi NNW 8.1 mph - N/A   Clear
10:53 PM 24.8 °F 16.9 °F 21.2 °F 86% 29.92 in 10.0 mi North 6.9 mph - N/A   Clear
11:13 PM 26.6 °F 18.2 °F 21.2 °F 80% 29.92 in 10.0 mi North 8.1 mph - N/A   Clear
11:32 PM 26.6 °F 19.1 °F 21.2 °F 80% 29.91 in 10.0 mi North 6.9 mph - N/A   Clear
11:53 PM 28.4 °F 20.4 °F 21.2 °F 74% 29.91 in 10.0 mi North 8.1 mph - N/A   Clear